United States

Ashburn, VA Weather Archive

Below you will find the last 24 hours of weather readings for Ashburn VA

Ashburn VA Today's Weather Data

Observed at: Ashburn, VA

Hour Observerd Temp Pressure Visibility Humidity Dew Point Wind
14:00 Overcast 75°F (23.9°C) 101.15 kPa 10 miles 52% 56.2°F (13.4°C) 15 mph WNW 295°
13:00 Overcast 71°F (21.7°C) 101.15 kPa 10 miles 53% 53°F (11.7°C) 10.4 mph WNW 295°
12:00 Mostly Cloudy 72°F (22.2°C) 101.25 kPa 10 miles 54% 54.4°F (12.5°C) 4.6 mph WNW 296°
11:00 Fair 55°F (12.8°C) 101.42 kPa 10 miles 78% 48.3°F (9°C) 4.6 mph WNW 300°
10:00 Fair 53°F (11.7°C) 101.42 kPa 10 miles 78% 46.3°F (8°C) 4.6 mph ESE 120°
09:00 Partly Cloudy 53°F (11.7°C) 101.52 kPa 10 miles 77% 46°F (7.8°C) 3.5 mph ESE 115°
08:00 Partly Cloudy 52°F (11.1°C) 101.52 kPa 10 miles 76% 44.7°F (7°C) 3.6 mph ESE 115°6 mph
07:00 Overcast 51°F (10.6°C) 101.49 kPa 10 miles 75% 43.4°F (6.3°C) 3.8 mph ESE 115°6.7 mph
06:00 Overcast 51°F (10.6°C) 101.46 kPa 10 miles 73% 42.7°F (5.9°C) 4 mph ESE 115°
05:00 Overcast 51°F (10.6°C) 101.49 kPa 10 miles 69% 41.2°F (5.1°C) 3.5 mph ESE 115°5.1 mph
04:00 Overcast 52°F (11.1°C) 101.49 kPa 10 miles 63% 39.8°F (4.3°C) 3.5 mph ESE 115°
03:00 Overcast 52°F (11.1°C) 101.52 kPa 10 miles 59% 38.1°F (3.4°C) 4.7 mph SE 134°8.5 mph
02:00 Overcast 50°F (10°C) 101.52 kPa 10 miles 58% 35.8°F (2.1°C) 3.6 mph SE 134°7.4 mph
01:00 Mostly Cloudy 50°F (10°C) 101.66 kPa 10 miles 63% 37.9°F (3.3°C) 4 mph SE 134°6.5 mph
00:00 Partly Cloudy 53°F (11.7°C) 101.69 kPa 10 miles 52% 35.9°F (2.1°C) 4.6 mph ESE 111°
23:00 Fair 54°F (12.2°C) 101.66 kPa 10 miles 47% 34.2°F (1.2°C) 3.5 mph ESE 111°7.8 mph
22:00 Fair 55°F (12.8°C) 101.69 kPa 10 miles 48% 35.7°F (2°C) 4.6 mph ESE 111°10.5 mph
21:00 Fair 52°F (11.1°C) 101.69 kPa 10 miles 54% 35.6°F (2°C) 6.9 mph S 173.75°
20:00 Fair 65°F (18.3°C) 101.63 kPa 10 miles 35% 36.7°F (2.6°C) 3.5 mph ESE 110°
19:00 Fair 70°F (21.1°C) 101.59 kPa 10 miles 31% 38°F (3.3°C) 1 mph E 101°4 mph
18:00 Fair 71°F (21.7°C) 101.63 kPa 10 miles 31% 38.8°F (3.8°C) 6.9 mph N 354°8 mph
17:00 Fair 71°F (21.7°C) 101.66 kPa 10 miles 31% 38.8°F (3.8°C) 1 mph E 98°13 mph
16:00 Fair 71°F (21.7°C) 101.66 kPa 10 miles 34% 41.2°F (5.1°C) 3 mph SSE 150°10 mph
15:00 Fair 68°F (20°C) 101.69 kPa 10 miles 36% 40°F (4.5°C) 2 mph NNW 332°12 mph